Location: Black Swamp Observatory
(41.3920°N, 84.1250°W)
Time: 03:48:07
(UTC-05:00)

X-37B - Visible Passes

Search period start: 10 December 2022 00:00
Search period end: 20 December 2022 00:00
Orbit: 277 x 277 km, 45.0° (Epoch: 01 November)

Date Brightness Start Highest point End Pass type
(mag) Time Alt. Az. Time Alt. Az. Time Alt. Az.
10 Dec 0.5 18:32:24 10° W 18:34:47 43° NNW 18:34:52 43° N visible
11 Dec 0.9 18:33:15 10° WNW 18:35:30 34° N 18:35:30 34° N visible
12 Dec 1.1 18:34:04 10° WNW 18:36:09 31° N 18:36:09 31° N visible
13 Dec 1.1 18:34:50 10° WNW 18:36:50 31° NNW 18:36:50 31° NNW visible
14 Dec 0.9 18:35:33 10° WNW 18:37:33 35° NNW 18:37:33 35° NNW visible
15 Dec 0.4 18:36:13 10° WNW 18:38:21 47° NNW 18:38:21 47° NNW visible
16 Dec -0.2 18:36:53 10° WNW 18:39:16 77° NNW 18:39:16 77° NNW visible
17 Dec 0.3 18:37:36 10° WNW 18:40:01 58° SSW 18:40:21 51° SSE visible
18 Dec 1.7 18:38:24 10° W 18:40:38 31° SSW 18:41:38 22° SSE visible
19 Dec 2.8 18:39:28 10° W 18:41:12 17° SW 18:42:56 10° SSE visible
